Time,TemperatureF,DewpointF,PressureIn,WindDirection,WindDirectionDegrees,WindSpeedMPH,WindSpeedGustMPH,Humidity,HourlyPrecipIn,Conditions,Clouds,dailyrainin,SoftwareType,DateUTC
2013-02-15 00:00:00,37.0,30.5,29.90,West,278,7.0,14.0,77,0.00,RA,RA,0.00,WeatherDisplay:10.37,2013-02-15 05:00:00,
2013-02-15 00:01:00,37.0,30.5,29.90,WNW,288,6.6,11.5,77,0.00,RA,,0.00,WeatherDisplay:10.37,2013-02-15 05:01:00,
2013-02-15 00:06:00,36.9,30.4,29.90,West,269,6.3,14.0,77,0.00,RA,,0.00,WeatherDisplay:10.37,2013-02-15 05:06:00,
2013-02-15 00:11:00,36.9,30.4,29.89,WNW,287,6.3,10.4,77,0.00,OVC,,0.00,WeatherDisplay:10.37,2013-02-15 05:11:00,
2013-02-15 00:16:00,36.8,30.3,29.90,WSW,251,4.6,5.8,77,0.00,OVC,,0.00,WeatherDisplay:10.37,2013-02-15 05:16:00,
2013-02-15 00:21:00,36.7,30.2,29.90,West,269,3.1,3.5,77,0.00,OVC,,0.00,WeatherDisplay:10.37,2013-02-15 05:21:00,
2013-02-15 00:26:00,36.6,30.1,29.90,West,268,6.0,11.0,77,0.00,OVC,,0.00,WeatherDisplay:10.37,2013-02-15 05:26:00,
2013-02-15 00:31:00,36.6,30.1,29.90,West,265,5.5,8.1,77,0.00,OVC,,0.00,WeatherDisplay:10.37,2013-02-15 05:31:00,
2013-02-15 00:36:00,36.6,30.1,29.90,WSW,257,6.8,12.7,77,0.00,OVC,,0.00,WeatherDisplay:10.37,2013-02-15 05:36:00,
2013-02-15 00:41:00,36.6,30.1,29.90,West,266,5.4,13.8,77,0.00,OVC,,0.00,WeatherDisplay:10.37,2013-02-15 05:41:00,
2013-02-15 00:46:00,36.6,30.1,29.90,WSW,254,6.1,11.5,77,0.00,OVC,,0.00,WeatherDisplay:10.37,2013-02-15 05:46:00,
2013-02-15 00:51:00,36.6,30.4,29.90,WSW,257,3.4,5.8,78,0.00,OVC,,0.00,WeatherDisplay:10.37,2013-02-15 05:51:00,
2013-02-15 00:56:00,36.5,30.3,29.90,WSW,255,3.0,5.8,78,0.00,OVC,,0.00,WeatherDisplay:10.37,2013-02-15 05:56:00,
2013-02-15 01:01:00,36.5,30.3,29.90,SW,232,3.0,5.8,78,0.00,OVC,,0.00,WeatherDisplay:10.37,2013-02-15 06:01:00,
2013-02-15 01:06:00,36.4,30.2,29.90,West,273,6.2,9.0,78,0.00,OVC,,0.00,WeatherDisplay:10.37,2013-02-15 06:06:00,
2013-02-15 01:11:00,36.4,30.2,29.90,WSW,255,4.5,13.0,78,0.00,OVC,,0.00,WeatherDisplay:10.37,2013-02-15 06:11:00,
2013-02-15 01:16:00,36.5,30.3,29.90,West,279,6.9,9.2,78,0.00,OVC,,0.00,WeatherDisplay:10.37,2013-02-15 06:16:00,
2013-02-15 01:21:00,36.5,30.3,29.90,West,275,5.7,6.0,78,0.00,OVC,,0.00,WeatherDisplay:10.37,2013-02-15 06:21:00,
2013-02-15 01:26:00,36.5,30.3,29.90,West,275,5.2,5.8,78,0.00,OVC,,0.00,WeatherDisplay:10.37,2013-02-15 06:26:00,
2013-02-15 01:31:00,36.6,30.1,29.90,NW,307,7.3,17.0,77,0.00,OVC,,0.00,WeatherDisplay:10.37,2013-02-15 06:31:00,
2013-02-15 01:36:00,36.6,29.7,29.90,WNW,286,9.4,12.7,76,0.00,OVC,,0.00,WeatherDisplay:10.37,2013-02-15 06:36:00,
2013-02-15 01:41:00,36.7,29.8,29.90,West,265,7.1,9.2,76,0.00,OVC,,0.00,WeatherDisplay:10.37,2013-02-15 06:41:00,
2013-02-15 01:46:00,36.7,29.5,29.90,NNW,332,7.8,16.1,75,0.00,OVC,,0.00,WeatherDisplay:10.37,2013-02-15 06:46:00,
2013-02-15 01:51:00,36.6,29.4,29.90,West,276,4.2,5.8,75,0.00,OVC,,0.00,WeatherDisplay:10.37,2013-02-15 06:51:00,
2013-02-15 01:56:00,36.5,29.3,29.90,West,262,7.1,12.7,75,0.00,OVC,,0.00,WeatherDisplay:10.37,2013-02-15 06:56:00,
2013-02-15 02:01:00,36.6,29.4,29.91,West,274,5.1,11.5,75,0.00,OVC,,0.00,WeatherDisplay:10.37,2013-02-15 07:01:00,
2013-02-15 02:06:00,36.5,29.3,29.91,WNW,284,1.8,4.6,75,0.00,OVC,,0.00,WeatherDisplay:10.37,2013-02-15 07:06:00,
2013-02-15 02:11:00,36.4,29.2,29.91,WSW,256,7.9,15.0,75,0.00,OVC,,0.00,WeatherDisplay:10.37,2013-02-15 07:11:00,
2013-02-15 02:16:00,36.4,28.9,29.91,WSW,258,6.5,10.4,74,0.00,OVC,,0.00,WeatherDisplay:10.37,2013-02-15 07:16:00,
2013-02-15 02:21:00,36.4,28.9,29.91,WNW,284,8.0,13.0,74,0.00,OVC,,0.00,WeatherDisplay:10.37,2013-02-15 07:21:00,
2013-02-15 02:26:00,36.3,28.5,29.91,NW,315,3.2,8.1,73,0.00,OVC,,0.00,WeatherDisplay:10.37,2013-02-15 07:26:00,
2013-02-15 02:31:00,36.3,28.5,29.91,WNW,282,6.5,9.0,73,0.00,OVC,,0.00,WeatherDisplay:10.37,2013-02-15 07:31:00,
2013-02-15 02:36:00,36.2,28.4,29.91,West,277,3.1,6.9,73,0.00,OVC,,0.00,WeatherDisplay:10.37,2013-02-15 07:36:00,
2013-02-15 02:41:00,36.1,28.6,29.91,WNW,294,4.9,7.0,74,0.00,OVC,,0.00,WeatherDisplay:10.37,2013-02-15 07:41:00,
2013-02-15 02:46:00,36.1,28.3,29.91,West,261,4.2,5.8,73,0.00,OVC,,0.00,WeatherDisplay:10.37,2013-02-15 07:46:00,
2013-02-15 02:51:00,36.1,28.3,29.91,WNW,294,8.4,15.0,73,0.00,OVC,,0.00,WeatherDisplay:10.37,2013-02-15 07:51:00,
2013-02-15 02:56:00,36.1,28.3,29.91,West,267,5.1,12.7,73,0.00,OVC,,0.00,WeatherDisplay:10.37,2013-02-15 07:56:00,
2013-02-15 03:01:00,36.0,28.2,29.91,West,266,3.5,11.5,73,0.00,OVC,,0.00,WeatherDisplay:10.37,2013-02-15 08:01:00,
2013-02-15 03:06:00,36.0,28.2,29.91,WNW,295,4.0,5.8,73,0.00,OVC,,0.00,WeatherDisplay:10.37,2013-02-15 08:06:00,
2013-02-15 03:11:00,36.0,28.2,29.92,NW,318,6.6,11.5,73,0.00,OVC,,0.00,WeatherDisplay:10.37,2013-02-15 08:11:00,
2013-02-15 03:17:00,35.9,28.1,29.92,West,260,4.0,6.0,73,0.00,OVC,,0.00,WeatherDisplay:10.37,2013-02-15 08:17:00,
2013-02-15 03:22:00,35.6,28.1,29.92,WNW,290,0.4,3.5,74,0.00,OVC,,0.00,WeatherDisplay:10.37,2013-02-15 08:22:00,
2013-02-15 03:27:00,35.4,27.9,29.92,WSW,249,2.0,3.5,74,0.00,OVC,,0.00,WeatherDisplay:10.37,2013-02-15 08:27:00,
2013-02-15 03:32:00,35.3,28.2,29.92,WSW,246,2.7,4.0,75,0.00,OVC,,0.00,WeatherDisplay:10.37,2013-02-15 08:32:00,
2013-02-15 03:37:00,35.3,28.2,29.92,WSW,252,2.6,3.5,75,0.00,OVC,,0.00,WeatherDisplay:10.37,2013-02-15 08:37:00,
2013-02-15 03:42:00,35.1,28.0,29.92,North,360,1.2,4.6,75,0.00,OVC,,0.00,WeatherDisplay:10.37,2013-02-15 08:42:00,
2013-02-15 03:47:00,34.9,27.5,29.92,North,360,4.3,5.8,74,0.00,OVC,,0.00,WeatherDisplay:10.37,2013-02-15 08:47:00,
2013-02-15 03:52:00,34.7,27.3,29.92,North,360,3.8,5.8,74,0.00,OVC,,0.00,WeatherDisplay:10.37,2013-02-15 08:52:00,
2013-02-15 03:57:00,34.5,27.1,29.92,North,360,2.3,4.0,74,0.00,OVC,,0.00,WeatherDisplay:10.37,2013-02-15 08:57:00,
2013-02-15 04:02:00,34.2,26.8,29.92,North,360,5.7,9.2,74,0.00,BKN,,0.00,WeatherDisplay:10.37,2013-02-15 09:02:00,
2013-02-15 04:07:00,34.1,26.7,29.92,North,360,3.5,5.0,74,0.00,BKN,,0.00,WeatherDisplay:10.37,2013-02-15 09:07:00,
2013-02-15 04:12:00,34.0,26.6,29.93,North,360,1.9,3.5,74,0.00,BKN,,0.00,WeatherDisplay:10.37,2013-02-15 09:12:00,
2013-02-15 04:17:00,33.8,26.4,29.93,North,360,0.6,3.0,74,0.00,BKN,,0.00,WeatherDisplay:10.37,2013-02-15 09:17:00,
2013-02-15 04:22:00,33.6,26.2,29.93,North,360,2.2,4.6,74,0.00,BKN,,0.00,WeatherDisplay:10.37,2013-02-15 09:22:00,
2013-02-15 04:27:00,33.4,26.3,29.93,North,360,1.7,3.5,75,0.00,BKN,,0.00,WeatherDisplay:10.37,2013-02-15 09:27:00,
2013-02-15 04:32:00,33.3,26.2,29.93,North,360,0.8,3.5,75,0.00,BKN,,0.00,WeatherDisplay:10.37,2013-02-15 09:32:00,
2013-02-15 04:37:00,33.0,25.9,29.93,North,360,2.8,3.5,75,0.00,BKN,,0.00,WeatherDisplay:10.37,2013-02-15 09:37:00,
2013-02-15 04:42:00,32.8,26.1,29.94,North,360,2.9,3.5,76,0.00,BKN,,0.00,WeatherDisplay:10.37,2013-02-15 09:42:00,
2013-02-15 04:47:00,32.7,26.3,29.94,North,360,1.7,4.0,77,0.00,BKN,,0.00,WeatherDisplay:10.37,2013-02-15 09:47:00,
2013-02-15 04:52:00,32.6,26.2,29.94,North,360,1.2,2.3,77,0.00,BKN,,0.00,WeatherDisplay:10.37,2013-02-15 09:52:00,
2013-02-15 04:57:00,32.4,26.3,29.94,North,360,0.9,1.1,78,0.00,BKN,,0.00,WeatherDisplay:10.37,2013-02-15 09:57:00,
2013-02-15 05:02:00,32.2,26.4,29.94,North,360,0.3,2.0,79,0.00,FEW,,0.00,WeatherDisplay:10.37,2013-02-15 10:02:00,
2013-02-15 05:07:00,32.1,26.3,29.95,North,360,1.7,3.5,79,0.00,FEW,,0.00,WeatherDisplay:10.37,2013-02-15 10:07:00,
2013-02-15 05:12:00,32.0,26.2,29.95,North,360,1.6,2.3,79,0.00,FEW,,0.00,WeatherDisplay:10.37,2013-02-15 10:12:00,
2013-02-15 05:17:00,32.0,26.2,29.95,North,360,1.3,3.5,79,0.00,FEW,,0.00,WeatherDisplay:10.37,2013-02-15 10:17:00,
2013-02-15 05:22:00,31.9,26.1,29.95,North,360,2.0,3.5,79,0.00,FEW,,0.00,WeatherDisplay:10.37,2013-02-15 10:22:00,
2013-02-15 05:27:00,31.8,26.0,29.95,North,360,1.4,3.5,79,0.00,FEW,,0.00,WeatherDisplay:10.37,2013-02-15 10:27:00,
2013-02-15 05:32:00,31.7,26.2,29.95,North,360,0.7,2.3,80,0.00,FEW,,0.00,WeatherDisplay:10.37,2013-02-15 10:32:00,
2013-02-15 05:37:00,31.6,26.1,29.96,North,360,1.1,2.3,80,0.00,FEW,,0.00,WeatherDisplay:10.37,2013-02-15 10:37:00,
2013-02-15 05:42:00,31.5,26.0,29.96,North,360,0.4,2.3,80,0.00,FEW,,0.00,WeatherDisplay:10.37,2013-02-15 10:42:00,
2013-02-15 05:47:00,31.4,25.9,29.96,North,360,1.2,2.3,80,0.00,FEW,,0.00,WeatherDisplay:10.37,2013-02-15 10:47:00,
2013-02-15 05:52:00,31.4,26.2,29.96,North,360,1.6,3.5,81,0.00,FEW,,0.00,WeatherDisplay:10.37,2013-02-15 10:52:00,
2013-02-15 05:57:00,31.3,26.1,29.96,North,360,2.4,3.5,81,0.00,FEW,,0.00,WeatherDisplay:10.37,2013-02-15 10:57:00,
2013-02-15 06:02:00,31.2,26.3,29.96,North,360,2.4,3.5,82,0.00,SCT,,0.00,WeatherDisplay:10.37,2013-02-15 11:02:00,
2013-02-15 06:07:00,31.2,26.3,29.96,North,360,1.5,3.5,82,0.00,SCT,,0.00,WeatherDisplay:10.37,2013-02-15 11:07:00,
2013-02-15 06:12:00,31.3,26.4,29.97,North,360,2.8,4.6,82,0.00,SCT,,0.00,WeatherDisplay:10.37,2013-02-15 11:12:00,
2013-02-15 06:17:00,31.3,26.4,29.97,North,360,1.6,3.5,82,0.00,SCT,,0.00,WeatherDisplay:10.37,2013-02-15 11:17:00,
2013-02-15 06:22:00,31.3,26.4,29.97,North,360,2.5,3.5,82,0.00,SCT,,0.00,WeatherDisplay:10.37,2013-02-15 11:22:00,
2013-02-15 06:27:00,31.4,26.5,29.97,North,360,1.4,2.3,82,0.00,SCT,,0.00,WeatherDisplay:10.37,2013-02-15 11:27:00,
2013-02-15 06:32:00,31.5,26.6,29.97,North,360,1.5,3.5,82,0.00,SCT,,0.00,WeatherDisplay:10.37,2013-02-15 11:32:00,
2013-02-15 06:37:00,31.5,26.6,29.98,North,360,2.2,3.5,82,0.00,SCT,,0.00,WeatherDisplay:10.37,2013-02-15 11:37:00,
2013-02-15 06:42:00,31.5,26.6,29.98,North,360,0.5,3.5,82,0.00,SCT,,0.00,WeatherDisplay:10.37,2013-02-15 11:42:00,
2013-02-15 06:47:00,31.5,26.6,29.98,North,360,2.9,5.0,82,0.00,SCT,,0.00,WeatherDisplay:10.37,2013-02-15 11:47:00,
2013-02-15 06:52:00,31.4,26.5,29.98,North,360,3.2,3.5,82,0.00,SCT,,0.00,WeatherDisplay:10.37,2013-02-15 11:52:00,
2013-02-15 06:57:00,31.4,26.5,29.98,North,360,1.7,3.5,82,0.00,SCT,,0.00,WeatherDisplay:10.37,2013-02-15 11:57:00,
2013-02-15 07:02:00,31.3,26.4,29.98,North,360,2.5,4.6,82,0.00,OVC,,0.00,WeatherDisplay:10.37,2013-02-15 12:02:00,
2013-02-15 07:07:00,31.3,26.4,29.98,North,360,2.3,3.5,82,0.00,OVC,,0.00,WeatherDisplay:10.37,2013-02-15 12:07:00,
2013-02-15 07:12:00,31.3,26.4,29.98,North,360,1.6,3.0,82,0.00,OVC,,0.00,WeatherDisplay:10.37,2013-02-15 12:12:00,
2013-02-15 07:17:00,31.4,26.5,29.99,North,360,2.1,4.6,82,0.00,OVC,,0.00,WeatherDisplay:10.37,2013-02-15 12:17:00,
2013-02-15 07:22:00,31.4,26.2,29.99,North,360,2.2,4.6,81,0.00,OVC,,0.00,WeatherDisplay:10.37,2013-02-15 12:22:00,
2013-02-15 07:27:00,31.4,26.2,29.99,North,360,3.1,6.9,81,0.00,OVC,,0.00,WeatherDisplay:10.37,2013-02-15 12:27:00,
2013-02-15 07:32:00,31.5,26.0,29.99,North,360,3.1,4.6,80,0.00,OVC,,0.00,WeatherDisplay:10.37,2013-02-15 12:32:00,
2013-02-15 07:37:00,31.7,26.2,29.99,North,360,1.5,3.5,80,0.00,OVC,,0.00,WeatherDisplay:10.37,2013-02-15 12:37:00,
2013-02-15 07:42:00,31.7,26.2,29.99,North,360,1.9,3.5,80,0.00,OVC,,0.00,WeatherDisplay:10.37,2013-02-15 12:42:00,
2013-02-15 07:47:00,31.7,26.2,30.00,North,360,3.1,4.6,80,0.00,OVC,,0.00,WeatherDisplay:10.37,2013-02-15 12:47:00,
2013-02-15 07:52:00,31.8,26.0,30.00,North,360,2.0,3.5,79,0.00,OVC,,0.00,WeatherDisplay:10.37,2013-02-15 12:52:00,
2013-02-15 07:57:00,31.9,26.4,30.00,North,360,1.4,2.3,80,0.00,OVC,,0.00,WeatherDisplay:10.37,2013-02-15 12:57:00,
2013-02-15 08:02:00,31.9,26.1,30.00,North,360,1.2,2.3,79,0.00,OVC,,0.00,WeatherDisplay:10.37,2013-02-15 13:02:00,
2013-02-15 08:07:00,31.9,26.1,30.00,North,360,2.1,3.5,79,0.00,OVC,,0.00,WeatherDisplay:10.37,2013-02-15 13:07:00,
2013-02-15 08:12:00,31.9,26.1,30.01,North,360,2.3,3.5,79,0.00,OVC,,0.00,WeatherDisplay:10.37,2013-02-15 13:12:00,
2013-02-15 08:17:00,32.0,26.2,30.01,North,360,2.0,3.5,79,0.00,OVC,,0.00,WeatherDisplay:10.37,2013-02-15 13:17:00,
2013-02-15 08:22:00,32.0,26.2,30.01,North,360,2.3,3.5,79,0.00,OVC,,0.00,WeatherDisplay:10.37,2013-02-15 13:22:00,
2013-02-15 08:27:00,32.0,26.2,30.01,North,360,1.8,3.5,79,0.00,OVC,,0.00,WeatherDisplay:10.37,2013-02-15 13:27:00,
2013-02-15 08:32:00,31.9,26.1,30.02,North,360,2.5,3.5,79,0.00,OVC,,0.00,WeatherDisplay:10.37,2013-02-15 13:32:00,
2013-02-15 08:37:00,32.0,26.2,30.02,North,360,2.6,5.0,79,0.00,OVC,,0.00,WeatherDisplay:10.37,2013-02-15 13:37:00,
2013-02-15 08:42:00,32.2,26.4,30.02,North,360,2.7,5.8,79,0.00,OVC,,0.00,WeatherDisplay:10.37,2013-02-15 13:42:00,
2013-02-15 08:47:00,32.5,26.4,30.02,West,272,4.7,5.8,78,0.00,OVC,,0.00,WeatherDisplay:10.37,2013-02-15 13:47:00,
2013-02-15 08:52:00,32.7,26.6,30.02,West,269,2.2,3.5,78,0.00,OVC,,0.00,WeatherDisplay:10.37,2013-02-15 13:52:00,
2013-02-15 08:57:00,33.0,26.9,30.02,West,278,4.4,6.9,78,0.00,OVC,,0.00,WeatherDisplay:10.37,2013-02-15 13:57:00,
2013-02-15 09:02:00,33.1,26.7,30.02,WSW,253,4.7,8.1,77,0.00,BKN,,0.00,WeatherDisplay:10.37,2013-02-15 14:02:00,
2013-02-15 09:07:00,33.1,27.0,30.02,WNW,302,4.5,5.8,78,0.00,BKN,,0.00,WeatherDisplay:10.37,2013-02-15 14:07:00,
2013-02-15 09:12:00,33.1,27.0,30.02,West,265,5.6,8.1,78,0.00,BKN,,0.00,WeatherDisplay:10.37,2013-02-15 14:12:00,
2013-02-15 09:17:00,33.2,27.1,30.02,West,270,5.0,9.2,78,0.00,BKN,,0.00,WeatherDisplay:10.37,2013-02-15 14:17:00,
2013-02-15 09:22:00,33.2,27.1,30.02,WSW,245,6.1,11.5,78,0.00,BKN,,0.00,WeatherDisplay:10.37,2013-02-15 14:22:00,
2013-02-15 09:27:00,33.4,27.3,30.02,WSW,250,4.0,5.8,78,0.00,BKN,,0.00,WeatherDisplay:10.37,2013-02-15 14:27:00,
2013-02-15 09:32:00,33.5,27.7,30.02,WSW,249,6.1,10.0,79,0.00,BKN,,0.00,WeatherDisplay:10.37,2013-02-15 14:32:00,
2013-02-15 09:37:00,33.5,27.4,30.02,West,260,7.5,11.5,78,0.00,BKN,,0.00,WeatherDisplay:10.37,2013-02-15 14:37:00,
2013-02-15 09:42:00,33.6,27.5,30.02,WNW,294,4.5,6.9,78,0.00,BKN,,0.00,WeatherDisplay:10.37,2013-02-15 14:42:00,
2013-02-15 09:47:00,33.8,28.0,30.02,SW,229,5.7,6.9,79,0.00,BKN,,0.00,WeatherDisplay:10.37,2013-02-15 14:47:00,
2013-02-15 09:52:00,33.9,27.8,30.02,WSW,246,5.1,5.8,78,0.00,BKN,,0.00,WeatherDisplay:10.37,2013-02-15 14:52:00,
2013-02-15 09:57:00,34.1,28.0,30.03,West,259,4.3,5.8,78,0.00,BKN,,0.00,WeatherDisplay:10.37,2013-02-15 14:57:00,
2013-02-15 10:02:00,34.2,28.1,30.03,West,265,6.1,10.4,78,0.00,OVC,,0.00,WeatherDisplay:10.37,2013-02-15 15:02:00,
2013-02-15 10:07:00,34.3,27.8,30.03,WSW,240,6.8,10.4,77,0.00,OVC,,0.00,WeatherDisplay:10.37,2013-02-15 15:07:00,
2013-02-15 10:12:00,34.4,28.2,30.02,West,268,4.1,8.0,78,0.00,OVC,,0.00,WeatherDisplay:10.37,2013-02-15 15:12:00,
2013-02-15 10:17:00,34.6,28.1,30.02,West,260,4.7,10.4,77,0.00,OVC,,0.00,WeatherDisplay:10.37,2013-02-15 15:17:00,
2013-02-15 10:22:00,34.7,28.2,30.02,North,360,4.7,8.1,77,0.00,OVC,,0.00,WeatherDisplay:10.37,2013-02-15 15:22:00,
2013-02-15 10:27:00,34.9,28.7,30.02,North,360,3.3,6.0,78,0.00,OVC,,0.00,WeatherDisplay:10.37,2013-02-15 15:27:00,
2013-02-15 10:32:00,35.0,28.5,30.02,North,360,4.4,8.1,77,0.00,OVC,,0.00,WeatherDisplay:10.37,2013-02-15 15:32:00,
2013-02-15 10:37:00,35.0,28.2,30.03,North,360,2.2,4.6,76,0.00,OVC,,0.00,WeatherDisplay:10.37,2013-02-15 15:37:00,
2013-02-15 10:42:00,35.0,28.2,30.03,North,360,7.0,10.4,76,0.00,OVC,,0.00,WeatherDisplay:10.37,2013-02-15 15:42:00,
2013-02-15 10:47:00,35.1,28.3,30.02,North,360,4.2,5.8,76,0.00,OVC,,0.00,WeatherDisplay:10.37,2013-02-15 15:47:00,
2013-02-15 10:52:00,35.4,28.6,30.02,North,360,4.9,6.9,76,0.00,OVC,,0.00,WeatherDisplay:10.37,2013-02-15 15:52:00,
2013-02-15 10:57:00,35.7,29.2,30.02,North,360,3.7,5.8,77,0.00,OVC,,0.00,WeatherDisplay:10.37,2013-02-15 15:57:00,
2013-02-15 11:02:00,35.7,28.2,30.02,North,360,4.3,9.2,74,0.00,OVC,,0.00,WeatherDisplay:10.37,2013-02-15 16:02:00,
2013-02-15 11:07:00,35.5,28.4,30.02,North,360,5.0,5.8,75,0.00,OVC,,0.00,WeatherDisplay:10.37,2013-02-15 16:07:00,
2013-02-15 11:12:00,35.5,28.4,30.02,North,360,3.4,5.8,75,0.00,OVC,,0.00,WeatherDisplay:10.37,2013-02-15 16:12:00,
2013-02-15 11:17:00,35.6,28.5,30.03,North,360,4.9,9.2,75,0.00,OVC,,0.00,WeatherDisplay:10.37,2013-02-15 16:17:00,
2013-02-15 11:22:00,35.7,28.6,30.02,North,360,4.2,6.9,75,0.00,OVC,,0.00,WeatherDisplay:10.37,2013-02-15 16:22:00,
2013-02-15 11:27:00,35.8,28.6,30.03,North,360,5.3,8.1,75,0.00,OVC,,0.00,WeatherDisplay:10.37,2013-02-15 16:27:00,
2013-02-15 11:32:00,36.0,28.5,30.03,North,360,3.3,4.6,74,0.00,OVC,,0.00,WeatherDisplay:10.37,2013-02-15 16:32:00,
2013-02-15 11:37:00,36.2,29.4,30.03,North,360,3.2,4.0,76,0.00,OVC,,0.00,WeatherDisplay:10.37,2013-02-15 16:37:00,
2013-02-15 11:42:00,36.2,28.4,30.02,North,360,3.7,8.1,73,0.00,OVC,,0.00,WeatherDisplay:10.37,2013-02-15 16:42:00,
2013-02-15 11:47:00,36.3,28.8,30.02,North,360,3.4,5.8,74,0.00,OVC,,0.00,WeatherDisplay:10.37,2013-02-15 16:47:00,
2013-02-15 11:52:00,36.4,27.9,30.02,North,360,3.6,6.9,71,0.00,OVC,,0.00,WeatherDisplay:10.37,2013-02-15 16:52:00,
2013-02-15 11:57:00,36.5,28.3,30.02,North,360,4.5,10.0,72,0.00,OVC,,0.00,WeatherDisplay:10.37,2013-02-15 16:57:00,
2013-02-15 12:02:00,36.4,28.6,30.02,North,360,4.0,6.9,73,0.00,OVC,,0.00,WeatherDisplay:10.37,2013-02-15 17:02:00,
2013-02-15 12:07:00,36.3,28.5,30.02,North,360,3.5,4.6,73,0.00,OVC,,0.00,WeatherDisplay:10.37,2013-02-15 17:07:00,
2013-02-15 12:12:00,36.3,27.8,30.02,North,360,4.7,9.2,71,0.00,OVC,,0.00,WeatherDisplay:10.37,2013-02-15 17:12:00,
2013-02-15 12:17:00,36.3,27.8,30.02,North,360,5.4,8.1,71,0.00,OVC,,0.00,WeatherDisplay:10.37,2013-02-15 17:17:00,
2013-02-15 12:22:00,36.5,28.0,30.01,North,360,2.9,5.8,71,0.00,OVC,,0.00,WeatherDisplay:10.37,2013-02-15 17:22:00,
2013-02-15 12:27:00,36.7,28.2,30.01,North,360,4.9,7.0,71,0.00,OVC,,0.00,WeatherDisplay:10.37,2013-02-15 17:27:00,
2013-02-15 12:32:00,36.6,27.4,30.01,North,360,4.1,5.8,69,0.00,OVC,,0.00,WeatherDisplay:10.37,2013-02-15 17:32:00,
2013-02-15 12:37:00,36.5,27.6,30.01,North,360,6.3,8.1,70,0.00,OVC,,0.00,WeatherDisplay:10.37,2013-02-15 17:37:00,
2013-02-15 12:43:00,36.4,28.6,30.01,North,360,3.2,6.0,73,0.00,OVC,,0.00,WeatherDisplay:10.37,2013-02-15 17:43:00,
2013-02-15 12:48:00,36.2,28.0,30.01,North,360,4.4,4.6,72,0.00,OVC,,0.00,WeatherDisplay:10.37,2013-02-15 17:48:00,
2013-02-15 12:53:00,36.1,28.3,30.01,North,360,3.4,4.6,73,0.00,OVC,,0.00,WeatherDisplay:10.37,2013-02-15 17:53:00,
2013-02-15 12:58:00,36.0,28.2,30.00,North,360,2.5,3.5,73,0.00,OVC,,0.00,WeatherDisplay:10.37,2013-02-15 17:58:00,
2013-02-15 13:03:00,36.1,28.3,30.00,North,360,3.1,4.6,73,0.00,OVC,,0.00,WeatherDisplay:10.37,2013-02-15 18:03:00,
2013-02-15 13:08:00,36.1,28.6,30.00,North,360,3.2,4.6,74,0.00,OVC,,0.00,WeatherDisplay:10.37,2013-02-15 18:08:00,
2013-02-15 13:13:00,36.2,28.7,30.00,North,360,2.6,4.0,74,0.00,OVC,,0.00,WeatherDisplay:10.37,2013-02-15 18:13:00,
2013-02-15 13:18:00,36.2,28.7,30.00,North,360,1.8,3.5,74,0.00,OVC,,0.00,WeatherDisplay:10.37,2013-02-15 18:18:00,
2013-02-15 13:23:00,36.2,29.7,30.00,North,360,3.8,4.6,77,0.00,OVC,,0.00,WeatherDisplay:10.37,2013-02-15 18:23:00,
2013-02-15 13:28:00,36.0,30.1,30.00,North,360,3.2,4.0,79,0.00,OVC,,0.00,WeatherDisplay:10.37,2013-02-15 18:28:00,
2013-02-15 13:33:00,35.7,30.1,30.00,North,360,4.4,8.1,80,0.00,OVC,,0.00,WeatherDisplay:10.37,2013-02-15 18:33:00,
2013-02-15 13:38:00,35.3,30.4,30.00,North,360,2.1,3.5,82,0.00,OVC,,0.00,WeatherDisplay:10.37,2013-02-15 18:38:00,
2013-02-15 13:43:00,35.1,30.2,30.00,North,360,3.0,6.9,82,0.00,OVC,,0.00,WeatherDisplay:10.37,2013-02-15 18:43:00,
2013-02-15 13:48:00,34.8,29.9,30.01,North,360,1.9,3.5,82,0.00,OVC,,0.00,WeatherDisplay:10.37,2013-02-15 18:48:00,
2013-02-15 13:53:00,34.7,30.1,30.01,North,360,2.0,4.6,83,0.00,OVC,,0.00,WeatherDisplay:10.37,2013-02-15 18:53:00,
2013-02-15 13:58:00,34.5,29.9,30.01,North,360,2.3,3.5,83,0.00,OVC,,0.00,WeatherDisplay:10.37,2013-02-15 18:58:00,
2013-02-15 14:03:00,34.3,29.7,30.00,North,360,2.8,4.6,83,0.00,OVC,,0.00,WeatherDisplay:10.37,2013-02-15 19:03:00,
2013-02-15 14:08:00,34.3,30.0,30.00,North,10,3.4,3.5,84,0.00,OVC,,0.00,WeatherDisplay:10.37,2013-02-15 19:08:00,
2013-02-15 14:13:00,34.3,29.7,30.00,ENE,61,2.4,3.5,83,0.00,OVC,,0.00,WeatherDisplay:10.37,2013-02-15 19:13:00,
2013-02-15 14:18:00,34.4,30.1,30.00,NNW,346,2.8,5.8,84,0.00,OVC,,0.00,WeatherDisplay:10.37,2013-02-15 19:18:00,
2013-02-15 14:23:00,34.5,29.9,30.00,NW,306,3.4,6.9,83,0.00,OVC,,0.00,WeatherDisplay:10.37,2013-02-15 19:23:00,
2013-02-15 14:28:00,34.5,29.9,30.00,NW,311,2.0,5.8,83,0.00,OVC,,0.00,WeatherDisplay:10.37,2013-02-15 19:28:00,
2013-02-15 14:33:00,34.4,29.5,30.00,North,360,4.7,8.1,82,0.00,OVC,,0.00,WeatherDisplay:10.37,2013-02-15 19:33:00,
2013-02-15 14:38:00,34.3,29.4,30.00,North,9,1.3,6.9,82,0.00,OVC,,0.00,WeatherDisplay:10.37,2013-02-15 19:38:00,
2013-02-15 14:43:00,34.1,29.2,30.00,NNW,338,1.5,5.8,82,0.00,OVC,,0.00,WeatherDisplay:10.37,2013-02-15 19:43:00,
2013-02-15 14:48:00,34.0,29.4,30.00,NNW,348,2.5,9.2,83,0.00,OVC,,0.00,WeatherDisplay:10.37,2013-02-15 19:48:00,
2013-02-15 14:53:00,33.9,29.3,30.00,North,360,1.2,3.0,83,0.00,OVC,,0.00,WeatherDisplay:10.37,2013-02-15 19:53:00,
2013-02-15 14:58:00,33.8,29.2,30.00,North,360,2.6,5.8,83,0.00,OVC,,0.00,WeatherDisplay:10.37,2013-02-15 19:58:00,
2013-02-15 15:03:00,33.7,29.1,30.00,NNE,21,2.2,4.6,83,0.00,-SN,,0.00,WeatherDisplay:10.37,2013-02-15 20:03:00,
2013-02-15 15:08:00,33.8,29.8,30.00,North,11,1.9,3.5,85,0.00,-SN,,0.00,WeatherDisplay:10.37,2013-02-15 20:08:00,
2013-02-15 15:13:00,33.9,29.9,30.00,NW,325,1.8,6.9,85,0.00,-SN,,0.00,WeatherDisplay:10.37,2013-02-15 20:13:00,
2013-02-15 15:18:00,34.1,30.1,30.00,NNW,332,4.7,5.8,85,0.00,-SN,,0.00,WeatherDisplay:10.37,2013-02-15 20:18:00,
2013-02-15 15:23:00,34.3,30.0,30.00,West,279,2.2,2.3,84,0.00,-SN,,0.00,WeatherDisplay:10.37,2013-02-15 20:23:00,
2013-02-15 15:28:00,34.5,29.9,30.01,NNW,347,2.8,5.8,83,0.00,-SN,,0.00,WeatherDisplay:10.37,2013-02-15 20:28:00,
2013-02-15 15:33:00,34.6,30.0,30.01,North,11,2.1,3.5,83,0.00,-SN,,0.00,WeatherDisplay:10.37,2013-02-15 20:33:00,
2013-02-15 15:38:00,34.6,30.0,30.01,WNW,296,4.0,4.6,83,0.00,-SN,,0.00,WeatherDisplay:10.37,2013-02-15 20:38:00,
2013-02-15 15:44:00,34.7,29.8,30.01,North,9,1.8,3.5,82,0.00,-SN,,0.00,WeatherDisplay:10.37,2013-02-15 20:44:00,
2013-02-15 15:49:00,34.8,30.2,30.01,NNW,344,4.0,6.0,83,0.00,-SN,,0.00,WeatherDisplay:10.37,2013-02-15 20:49:00,
2013-02-15 15:54:00,34.8,29.3,30.01,NNW,327,4.3,11.5,80,0.00,-SN,,0.00,WeatherDisplay:10.37,2013-02-15 20:54:00,
2013-02-15 15:59:00,34.7,28.9,30.01,NNW,345,4.8,6.9,79,0.00,-SN,,0.00,WeatherDisplay:10.37,2013-02-15 20:59:00,
2013-02-15 16:04:00,34.7,28.2,30.01,NW,325,2.9,3.5,77,0.00,-SN,,0.00,WeatherDisplay:10.37,2013-02-15 21:04:00,
2013-02-15 16:09:00,34.6,27.8,30.01,North,360,4.1,5.8,76,0.00,-SN,,0.00,WeatherDisplay:10.37,2013-02-15 21:09:00,
2013-02-15 16:14:00,34.5,27.7,30.01,NW,315,3.2,4.6,76,0.00,-SN,,0.00,WeatherDisplay:10.37,2013-02-15 21:14:00,
2013-02-15 16:19:00,34.5,27.7,30.01,NW,315,4.0,5.8,76,0.00,-SN,,0.00,WeatherDisplay:10.37,2013-02-15 21:19:00,
2013-02-15 16:24:00,34.5,27.7,30.01,WNW,298,4.2,5.8,76,0.00,-SN,,0.00,WeatherDisplay:10.37,2013-02-15 21:24:00,
2013-02-15 16:29:00,34.6,27.5,30.01,NW,308,5.7,6.9,75,0.00,-SN,,0.00,WeatherDisplay:10.37,2013-02-15 21:29:00,
2013-02-15 16:34:00,34.5,27.1,30.01,North,360,2.0,4.6,74,0.00,-SN,,0.00,WeatherDisplay:10.37,2013-02-15 21:34:00,
2013-02-15 16:39:00,34.3,27.2,30.02,North,360,2.3,3.5,75,0.00,-SN,,0.00,WeatherDisplay:10.37,2013-02-15 21:39:00,
2013-02-15 16:44:00,34.2,26.8,30.02,North,360,3.3,5.8,74,0.00,-SN,,0.00,WeatherDisplay:10.37,2013-02-15 21:44:00,
2013-02-15 16:49:00,34.0,26.6,30.02,North,360,3.3,8.1,74,0.00,-SN,,0.00,WeatherDisplay:10.37,2013-02-15 21:49:00,
2013-02-15 16:54:00,33.8,26.7,30.02,North,360,4.1,9.2,75,0.00,-SN,,0.00,WeatherDisplay:10.37,2013-02-15 21:54:00,
2013-02-15 16:59:00,33.6,27.2,30.03,North,360,3.1,5.8,77,0.00,-SN,,0.00,WeatherDisplay:10.37,2013-02-15 21:59:00,
2013-02-15 17:04:00,33.2,26.8,30.03,North,360,4.3,10.4,77,0.00,-SN,,0.00,WeatherDisplay:10.37,2013-02-15 22:04:00,
2013-02-15 17:09:00,32.8,26.7,30.03,North,360,2.8,4.6,78,0.00,-SN,,0.00,WeatherDisplay:10.37,2013-02-15 22:09:00,
2013-02-15 17:14:00,32.4,26.6,30.03,North,360,2.3,5.0,79,0.00,-SN,,0.00,WeatherDisplay:10.37,2013-02-15 22:14:00,
2013-02-15 17:19:00,32.1,26.3,30.03,North,360,2.9,4.6,79,0.00,-SN,,0.00,WeatherDisplay:10.37,2013-02-15 22:19:00,
2013-02-15 17:24:00,31.9,26.1,30.03,North,360,4.2,8.1,79,0.00,-SN,,0.00,WeatherDisplay:10.37,2013-02-15 22:24:00,
2013-02-15 17:29:00,31.6,25.8,30.04,North,360,2.1,4.0,79,0.00,-SN,,0.00,WeatherDisplay:10.37,2013-02-15 22:29:00,
2013-02-15 17:34:00,31.4,25.9,30.03,North,360,1.7,2.3,80,0.00,-SN,,0.00,WeatherDisplay:10.37,2013-02-15 22:34:00,
2013-02-15 17:39:00,31.1,25.7,30.04,North,360,2.1,3.5,80,0.00,-SN,,0.00,WeatherDisplay:10.37,2013-02-15 22:39:00,
2013-02-15 17:44:00,30.9,25.5,30.05,North,360,3.3,5.8,80,0.00,-SN,,0.00,WeatherDisplay:10.37,2013-02-15 22:44:00,
2013-02-15 17:49:00,30.7,25.3,30.05,North,360,1.9,3.5,80,0.00,-SN,,0.00,WeatherDisplay:10.37,2013-02-15 22:49:00,
2013-02-15 17:54:00,30.6,25.5,30.05,North,360,2.2,3.5,81,0.00,-SN,,0.00,WeatherDisplay:10.37,2013-02-15 22:54:00,
2013-02-15 17:59:00,30.6,25.5,30.05,North,360,2.8,4.6,81,0.00,-SN,,0.00,WeatherDisplay:10.37,2013-02-15 22:59:00,
2013-02-15 18:05:00,30.5,25.1,30.05,North,360,2.0,4.6,80,0.00,-SN,,0.00,WeatherDisplay:10.37,2013-02-15 23:05:00,
2013-02-15 18:10:00,30.4,25.3,30.05,North,360,3.2,5.8,81,0.00,-SN,,0.00,WeatherDisplay:10.37,2013-02-15 23:10:00,
2013-02-15 18:15:00,30.3,25.2,30.06,North,360,3.8,5.0,81,0.00,-SN,,0.00,WeatherDisplay:10.37,2013-02-15 23:15:00,
2013-02-15 18:20:00,30.1,24.7,30.06,North,360,3.9,5.8,80,0.00,-SN,,0.00,WeatherDisplay:10.37,2013-02-15 23:20:00,
2013-02-15 18:25:00,30.0,24.6,30.06,North,360,1.9,4.0,80,0.00,-SN,,0.00,WeatherDisplay:10.37,2013-02-15 23:25:00,
2013-02-15 18:30:00,29.9,24.8,30.06,North,360,2.6,4.0,81,0.00,-SN,,0.00,WeatherDisplay:10.37,2013-02-15 23:30:00,
2013-02-15 18:35:00,29.8,24.7,30.06,North,360,1.4,3.5,81,0.00,-SN,,0.00,WeatherDisplay:10.37,2013-02-15 23:35:00,
2013-02-15 18:40:00,29.7,25.2,30.06,North,360,2.8,4.6,83,0.00,-SN,,0.00,WeatherDisplay:10.37,2013-02-15 23:40:00,
2013-02-15 18:45:00,29.6,24.8,30.07,North,360,1.4,4.6,82,0.00,-SN,,0.00,WeatherDisplay:10.37,2013-02-15 23:45:00,
2013-02-15 18:50:00,29.5,24.7,30.07,North,360,3.1,3.5,82,0.00,-SN,,0.00,WeatherDisplay:10.37,2013-02-15 23:50:00,
2013-02-15 18:55:00,29.4,24.6,30.07,North,360,3.5,5.8,82,0.00,-SN,,0.00,WeatherDisplay:10.37,2013-02-15 23:55:00,
2013-02-15 19:00:00,29.2,23.8,30.07,North,360,4.0,6.9,80,0.00,-SN,,0.00,WeatherDisplay:10.37,2013-02-16 00:00:00,
2013-02-15 19:05:00,29.0,23.9,30.07,North,360,1.1,3.5,81,0.00,BKN,,0.00,WeatherDisplay:10.37,2013-02-16 00:05:00,
2013-02-15 19:10:00,29.0,23.9,30.07,North,360,3.2,4.0,81,0.00,BKN,,0.00,WeatherDisplay:10.37,2013-02-16 00:10:00,
2013-02-15 19:15:00,28.8,23.7,30.07,North,360,4.4,6.9,81,0.00,BKN,,0.00,WeatherDisplay:10.37,2013-02-16 00:15:00,
2013-02-15 19:20:00,28.7,23.3,30.07,North,360,2.3,4.6,80,0.00,BKN,,0.00,WeatherDisplay:10.37,2013-02-16 00:20:00,
2013-02-15 19:25:00,28.6,23.2,30.07,North,360,2.5,6.9,80,0.00,BKN,,0.00,WeatherDisplay:10.37,2013-02-16 00:25:00,
2013-02-15 19:30:00,28.4,22.7,30.08,North,360,2.5,3.5,79,0.00,BKN,,0.00,WeatherDisplay:10.37,2013-02-16 00:30:00,
2013-02-15 19:35:00,28.4,23.0,30.08,North,360,2.5,3.5,80,0.00,BKN,,0.00,WeatherDisplay:10.37,2013-02-16 00:35:00,
2013-02-15 19:40:00,28.3,22.9,30.08,North,360,1.4,3.5,80,0.00,BKN,,0.00,WeatherDisplay:10.37,2013-02-16 00:40:00,
2013-02-15 19:45:00,28.3,22.9,30.08,North,360,1.1,2.3,80,0.00,BKN,,0.00,WeatherDisplay:10.37,2013-02-16 00:45:00,
2013-02-15 19:50:00,28.2,22.8,30.08,North,360,1.2,4.0,80,0.00,BKN,,0.00,WeatherDisplay:10.37,2013-02-16 00:50:00,
2013-02-15 19:55:00,28.1,23.0,30.08,North,360,1.4,3.5,81,0.00,BKN,,0.00,WeatherDisplay:10.37,2013-02-16 00:55:00,
2013-02-15 20:00:00,28.0,22.9,30.08,North,360,0.3,2.3,81,0.00,BKN,,0.00,WeatherDisplay:10.37,2013-02-16 01:00:00,
2013-02-15 20:05:00,27.9,22.8,30.08,North,360,2.8,4.0,81,0.00,-SN,,0.00,WeatherDisplay:10.37,2013-02-16 01:05:00,
2013-02-15 20:10:00,27.8,23.0,30.08,North,360,1.5,2.3,82,0.00,-SN,,0.00,WeatherDisplay:10.37,2013-02-16 01:10:00,
2013-02-15 20:15:00,27.9,23.1,30.08,North,360,2.1,3.5,82,0.00,-SN,,0.00,WeatherDisplay:10.37,2013-02-16 01:15:00,
2013-02-15 20:20:00,27.8,23.0,30.08,North,360,1.9,3.5,82,0.00,-SN,,0.00,WeatherDisplay:10.37,2013-02-16 01:20:00,
2013-02-15 20:25:00,27.8,23.3,30.08,North,360,2.0,3.0,83,0.00,-SN,,0.00,WeatherDisplay:10.37,2013-02-16 01:25:00,
2013-02-15 20:30:00,27.8,23.3,30.08,North,360,1.8,3.5,83,0.00,-SN,,0.00,WeatherDisplay:10.37,2013-02-16 01:30:00,
2013-02-15 20:35:00,27.8,23.3,30.08,North,360,2.7,3.5,83,0.00,-SN,,0.00,WeatherDisplay:10.37,2013-02-16 01:35:00,
2013-02-15 20:40:00,27.7,23.2,30.08,North,360,2.5,3.5,83,0.00,-SN,,0.00,WeatherDisplay:10.37,2013-02-16 01:40:00,
2013-02-15 20:45:00,27.7,23.5,30.08,North,360,1.1,2.3,84,0.00,-SN,,0.00,WeatherDisplay:10.37,2013-02-16 01:45:00,
2013-02-15 20:50:00,27.6,23.4,30.08,North,360,2.0,3.5,84,0.00,-SN,,0.00,WeatherDisplay:10.37,2013-02-16 01:50:00,
2013-02-15 20:55:00,27.6,23.4,30.08,North,360,2.0,3.5,84,0.00,-SN,,0.00,WeatherDisplay:10.37,2013-02-16 01:55:00,
2013-02-15 21:00:00,27.6,23.4,30.08,North,360,0.8,3.5,84,0.00,-SN,,0.00,WeatherDisplay:10.37,2013-02-16 02:00:00,
2013-02-15 21:05:00,27.5,23.3,30.08,North,360,2.8,3.5,84,0.00,OVC,,0.00,WeatherDisplay:10.37,2013-02-16 02:05:00,
2013-02-15 21:10:00,27.5,23.3,30.08,North,360,1.0,2.3,84,0.00,OVC,,0.00,WeatherDisplay:10.37,2013-02-16 02:10:00,
2013-02-15 21:15:00,27.4,23.2,30.08,North,360,2.0,3.5,84,0.00,OVC,,0.00,WeatherDisplay:10.37,2013-02-16 02:15:00,
2013-02-15 21:20:00,27.2,22.7,30.09,North,360,2.1,3.5,83,0.00,OVC,,0.00,WeatherDisplay:10.37,2013-02-16 02:20:00,
2013-02-15 21:25:00,27.1,22.9,30.09,North,360,0.9,2.3,84,0.00,OVC,,0.00,WeatherDisplay:10.37,2013-02-16 02:25:00,
2013-02-15 21:30:00,27.1,22.9,30.09,North,360,1.9,3.5,84,0.00,OVC,,0.00,WeatherDisplay:10.37,2013-02-16 02:30:00,
2013-02-15 21:35:00,27.0,23.1,30.09,North,360,1.2,3.5,85,0.00,OVC,,0.00,WeatherDisplay:10.37,2013-02-16 02:35:00,
2013-02-15 21:40:00,27.0,22.8,30.09,North,360,0.1,2.3,84,0.00,OVC,,0.00,WeatherDisplay:10.37,2013-02-16 02:40:00,
2013-02-15 21:45:00,27.0,22.8,30.09,North,360,1.2,2.3,84,0.00,OVC,,0.00,WeatherDisplay:10.37,2013-02-16 02:45:00,
2013-02-15 21:50:00,26.9,22.7,30.09,North,360,0.4,2.3,84,0.00,OVC,,0.00,WeatherDisplay:10.37,2013-02-16 02:50:00,
2013-02-15 21:55:00,26.8,22.9,30.09,North,360,1.4,3.5,85,0.00,OVC,,0.00,WeatherDisplay:10.37,2013-02-16 02:55:00,
2013-02-15 22:00:00,26.8,22.9,30.08,North,360,0.0,0.0,85,0.00,OVC,,0.00,WeatherDisplay:10.37,2013-02-16 03:00:00,
2013-02-15 22:05:00,26.7,22.8,30.09,North,360,0.0,0.0,85,0.00,OVC,,0.00,WeatherDisplay:10.37,2013-02-16 03:05:00,
2013-02-15 22:10:00,26.6,22.7,30.09,North,360,0.9,1.1,85,0.00,OVC,,0.00,WeatherDisplay:10.37,2013-02-16 03:10:00,
2013-02-15 22:15:00,26.4,22.5,30.09,North,360,0.0,0.0,85,0.00,OVC,,0.00,WeatherDisplay:10.37,2013-02-16 03:15:00,
2013-02-15 22:20:00,26.3,22.4,30.09,North,360,0.1,1.0,85,0.00,OVC,,0.00,WeatherDisplay:10.37,2013-02-16 03:20:00,
2013-02-15 22:25:00,26.1,22.5,30.09,North,360,0.0,1.1,86,0.00,OVC,,0.00,WeatherDisplay:10.37,2013-02-16 03:25:00,
2013-02-15 22:30:00,26.1,22.5,30.09,North,360,0.0,1.1,86,0.00,OVC,,0.00,WeatherDisplay:10.37,2013-02-16 03:30:00,
2013-02-15 22:35:00,26.0,22.4,30.09,North,360,0.0,0.0,86,0.00,OVC,,0.00,WeatherDisplay:10.37,2013-02-16 03:35:00,
2013-02-15 22:40:00,26.0,22.4,30.08,North,360,0.0,0.0,86,0.00,OVC,,0.00,WeatherDisplay:10.37,2013-02-16 03:40:00,
2013-02-15 22:45:00,25.8,22.2,30.08,North,360,0.4,1.0,86,0.00,OVC,,0.00,WeatherDisplay:10.37,2013-02-16 03:45:00,
2013-02-15 22:50:00,25.7,22.4,30.08,North,360,0.0,0.0,87,0.00,OVC,,0.00,WeatherDisplay:10.37,2013-02-16 03:50:00,
2013-02-15 22:55:00,25.6,22.3,30.08,North,360,0.0,0.0,87,0.00,OVC,,0.00,WeatherDisplay:10.37,2013-02-16 03:55:00,
2013-02-15 23:00:00,25.4,21.8,30.08,North,360,0.0,0.0,86,0.00,OVC,,0.00,WeatherDisplay:10.37,2013-02-16 04:00:00,
2013-02-15 23:05:00,25.2,21.6,30.08,North,360,0.0,0.0,86,0.00,BKN,,0.00,WeatherDisplay:10.37,2013-02-16 04:05:00,
2013-02-15 23:10:00,25.0,21.7,30.08,North,360,0.0,0.0,87,0.00,BKN,,0.00,WeatherDisplay:10.37,2013-02-16 04:10:00,
2013-02-15 23:15:00,24.8,21.5,30.08,North,360,0.0,0.0,87,0.00,BKN,,0.00,WeatherDisplay:10.37,2013-02-16 04:15:00,
2013-02-15 23:20:00,24.7,21.7,30.08,North,360,0.0,0.0,88,0.00,BKN,,0.00,WeatherDisplay:10.37,2013-02-16 04:20:00,
2013-02-15 23:25:00,24.6,21.6,30.07,North,360,0.0,0.0,88,0.00,BKN,,0.00,WeatherDisplay:10.37,2013-02-16 04:25:00,
2013-02-15 23:30:00,24.6,21.8,30.08,North,360,0.0,0.0,89,0.00,BKN,,0.00,WeatherDisplay:10.37,2013-02-16 04:30:00,
2013-02-15 23:35:00,24.5,21.7,30.08,North,360,0.0,0.0,89,0.00,BKN,,0.00,WeatherDisplay:10.37,2013-02-16 04:35:00,
2013-02-15 23:40:00,24.5,21.7,30.08,North,360,0.0,0.0,89,0.00,BKN,,0.00,WeatherDisplay:10.37,2013-02-16 04:40:00,
2013-02-15 23:45:00,24.5,22.0,30.08,North,360,0.2,1.1,90,0.00,BKN,,0.00,WeatherDisplay:10.37,2013-02-16 04:45:00,
2013-02-15 23:50:00,24.5,22.0,30.08,North,360,0.0,0.0,90,0.00,BKN,,0.00,WeatherDisplay:10.37,2013-02-16 04:50:00,
2013-02-15 23:55:00,24.6,22.3,30.08,North,360,0.0,0.0,91,0.00,BKN,,0.00,WeatherDisplay:10.37,2013-02-16 04:55:00,